SV2RCS-13 Weather Reports


time (UTC)temp
F
wind
direction
speed
knots
gust
knots
rain 1hr
in
rain 24hr
in
rain mn
in
humidity
%
barometer
mb
20260507122702 66 0.0 0.0 0.00 0.00 0.00 40 1016.5
20260507121702 66 0.0 0.0 0.00 0.00 0.00 44 1016.8
20260507120702 65 0.0 0.0 0.00 0.00 0.00 46 1017.0
20260507115702 65 0.0 0.0 0.00 0.00 0.00 49 1017.0
20260507114703 65 0.0 0.0 0.00 0.00 0.00 51 1017.1
20260507113703 64 0.0 0.0 0.00 0.00 0.00 55 1017.1
20260507112702 64 0.0 0.0 0.00 0.00 0.00 55 1017.5
20260507111703 63 0.0 0.0 0.00 0.00 0.00 58 1017.5
20260507110702 63 0.0 0.0 0.00 0.00 0.00 61 1017.3
20260507105703 63 0.0 0.0 0.00 0.00 0.00 57 1017.9
20260507104702 64 0.0 0.0 0.00 0.00 0.00 53 1017.9
20260507103702 65 0.0 0.0 0.00 0.00 0.00 49 1017.7
20260507102702 65 0.0 0.0 0.00 0.00 0.00 48 1017.7
20260507101703 64 0.0 0.0 0.00 0.00 0.00 49 1017.8
20260507100702 64 0.0 0.0 0.00 0.00 0.00 50 1017.8
20260507095702 64 0.0 0.0 0.00 0.00 0.00 51 1017.8
20260507094703 63 0.0 0.0 0.00 0.00 0.00 54 1017.8
20260507093702 63 0.0 0.0 0.00 0.00 0.00 54 1017.6
20260507092701 64 0.0 0.0 0.00 0.00 0.00 53 1017.9
20260507091703 63 0.0 0.0 0.00 0.00 0.00 52 1017.8
20260507090702 63 0.0 0.0 0.00 0.00 0.00 51 1017.8
20260507085702 63 0.0 0.0 0.00 0.00 0.00 49 1017.7
20260507084703 64 0.0 0.0 0.00 0.00 0.00 46 1017.4
20260507083704 64 0.0 0.0 0.00 0.00 0.00 45 1017.1
20260507082702 65 0.0 0.0 0.00 0.00 0.00 44 1017.0
20260507081702 65 0.0 0.0 0.00 0.00 0.00 43 1016.9
20260507080702 65 0.0 0.0 0.00 0.00 0.00 40 1016.8
20260507075702 66 0.0 0.0 0.00 0.00 0.00 39 1016.5
20260507074702 65 0.0 0.0 0.00 0.00 0.00 39 1016.4
20260507073702 66 0.0 0.0 0.00 0.00 0.00 38 1016.2
20260507072702 66 0.0 0.0 0.00 0.00 0.00 38 1015.9
20260507071702 65 0.0 0.0 0.00 0.00 0.00 39 1015.9
20260507070702 64 0.0 0.0 0.00 0.00 0.00 39 1016.0
20260507065702 64 0.0 0.0 0.00 0.00 0.00 39 1016.2
20260507064702 64 0.0 0.0 0.00 0.00 0.00 40 1016.1
20260507063702 64 0.0 0.0 0.00 0.00 0.00 41 1016.1
20260507062707 64 0.0 0.0 0.00 0.00 0.00 40 1016.0
20260507061702 64 0.0 0.0 0.00 0.00 0.00 43 1016.0
20260507060702 63 0.0 0.0 0.00 0.00 0.00 44 1016.2
20260507055702 63 0.0 0.0 0.00 0.00 0.00 43 1015.9
20260507054702 63 0.0 0.0 0.00 0.00 0.00 44 1015.8
20260507053703 63 0.0 0.0 0.00 0.00 0.00 48 1015.7
20260507052702 62 0.0 0.0 0.00 0.00 0.00 47 1015.6
20260507051706 62 0.0 0.0 0.00 0.00 0.00 49 1015.6
20260507050702 62 0.0 0.0 0.00 0.00 0.00 49 1015.5
20260507045702 62 0.0 0.0 0.00 0.00 0.00 46 1015.3
20260507044702 62 0.0 0.0 0.00 0.00 0.00 47 1015.4
20260507043702 62 0.0 0.0 0.00 0.00 0.00 46 1015.1
20260507042702 62 0.0 0.0 0.00 0.00 0.00 45 1015.3
20260507041702 61 0.0 0.0 0.00 0.00 0.00 44 1015.4
20260507040657 59 0.0 0.0 0.00 0.00 0.00 47 1015.6
20260507035701 59 0.0 0.0 0.00 0.00 0.00 46 1015.5
20260507034702 59 0.0 0.0 0.00 0.00 0.00 46 1015.4
20260507033702 59 0.0 0.0 0.00 0.00 0.00 45 1015.5
20260507032702 58 0.0 0.0 0.00 0.00 0.00 45 1015.5
20260507031702 59 0.0 0.0 0.00 0.00 0.00 44 1015.3
20260507030703 59 0.0 0.0 0.00 0.00 0.00 43 1015.4
20260507025702 59 0.0 0.0 0.00 0.00 0.00 43 1015.4
20260507024705 59 0.0 0.0 0.00 0.00 0.00 42 1015.4
20260507023702 59 0.0 0.0 0.00 0.00 0.00 42 1015.3
20260507022702 60 0.0 0.0 0.00 0.00 0.00 41 1015.0
20260507021702 60 0.0 0.0 0.00 0.00 0.00 41 1015.0
20260507020703 60 0.0 0.0 0.00 0.00 0.00 42 1015.0
20260507015702 61 0.0 0.0 0.00 0.00 0.00 41 1014.9
20260507014702 61 0.0 0.0 0.00 0.00 0.00 40 1014.7
20260507013702 61 0.0 0.0 0.00 0.00 0.00 39 1014.6
20260507012702 61 0.0 0.0 0.00 0.00 0.00 39 1014.7
20260507011702 61 0.0 0.0 0.00 0.00 0.00 39 1014.6
20260507010702 60 0.0 0.0 0.00 0.00 0.00 39 1014.7
20260507005703 60 0.0 0.0 0.00 0.00 0.00 40 1014.8
20260507004702 60 0.0 0.0 0.00 0.00 0.00 40 1014.5
20260507003702 60 0.0 0.0 0.00 0.00 0.00 41 1014.7
20260507002702 60 0.0 0.0 0.00 0.00 0.00 40 1014.5
20260507001702 61 0.0 0.0 0.00 0.00 0.00 40 1014.3
20260507000702 61 0.0 0.0 0.00 0.00 0.00 40 1014.4
20260506235702 61 0.0 0.0 0.00 0.00 0.00 40 1014.5
20260506234702 61 0.0 0.0 0.00 0.00 0.00 40 1014.4
20260506233702 62 0.0 0.0 0.00 0.00 0.00 40 1014.3
20260506232701 62 0.0 0.0 0.00 0.00 0.00 40 1014.3
20260506231702 62 0.0 0.0 0.00 0.00 0.00 40 1014.2
20260506230702 62 0.0 0.0 0.00 0.00 0.00 40 1014.4
20260506225701 62 0.0 0.0 0.00 0.00 0.00 40 1014.4
20260506224702 62 0.0 0.0 0.00 0.00 0.00 39 1014.5
20260506223702 62 0.0 0.0 0.00 0.00 0.00 38 1014.6
20260506222702 62 0.0 0.0 0.00 0.00 0.00 37 1014.8
20260506221701 61 0.0 0.0 0.00 0.00 0.00 37 1014.8
20260506220702 61 0.0 0.0 0.00 0.00 0.00 38 1014.9
20260506215702 61 0.0 0.0 0.00 0.00 0.00 36 1014.9
20260506214701 61 0.0 0.0 0.00 0.00 0.00 35 1014.8
20260506213702 61 0.0 0.0 0.00 0.00 0.00 35 1014.8
20260506212701 61 0.0 0.0 0.00 0.00 0.00 35 1014.8
20260506211702 62 0.0 0.0 0.00 0.00 0.00 36 1014.8
20260506210706 62 0.0 0.0 0.00 0.00 0.00 37 1014.8
20260506205702 61 0.0 0.0 0.00 0.00 0.00 37 1014.9
20260506204702 62 0.0 0.0 0.00 0.00 0.00 36 1014.8
20260506203711 62 0.0 0.0 0.00 0.00 0.00 37 1014.8
20260506202702 62 0.0 0.0 0.00 0.00 0.00 35 1014.7
20260506201701 63 0.0 0.0 0.00 0.00 0.00 35 1014.5
20260506200702 63 0.0 0.0 0.00 0.00 0.00 34 1014.5
20260506195705 63 0.0 0.0 0.00 0.00 0.00 34 1014.6
20260506194704 63 0.0 0.0 0.00 0.00 0.00 34 1014.6
20260506193701 64 0.0 0.0 0.00 0.00 0.00 33 1014.1
20260506192702 64 0.0 0.0 0.00 0.00 0.00 33 1014.2
20260506191701 64 0.0 0.0 0.00 0.00 0.00 32 1013.9
20260506190702 64 0.0 0.0 0.00 0.00 0.00 33 1013.8
20260506185705 65 0.0 0.0 0.00 0.00 0.00 34 1013.8
20260506184701 65 0.0 0.0 0.00 0.00 0.00 33 1013.6
20260506183702 65 0.0 0.0 0.00 0.00 0.00 34 1013.2
20260506182701 66 0.0 0.0 0.00 0.00 0.00 34 1013.0
20260506181702 66 0.0 0.0 0.00 0.00 0.00 35 1012.9
20260506180702 66 0.0 0.0 0.00 0.00 0.00 36 1012.8
20260506175701 67 0.0 0.0 0.00 0.00 0.00 35 1012.7
20260506174702 68 0.0 0.0 0.00 0.00 0.00 33 1012.2
20260506173703 68 0.0 0.0 0.00 0.00 0.00 33 1012.1
20260506172701 69 0.0 0.0 0.00 0.00 0.00 33 1011.8
20260506171702 70 0.0 0.0 0.00 0.00 0.00 33 1011.6
20260506170702 70 0.0 0.0 0.00 0.00 0.00 32 1011.4
20260506165702 71 0.0 0.0 0.00 0.00 0.00 29 1011.3
20260506164702 71 0.0 0.0 0.00 0.00 0.00 30 1011.4
20260506163702 71 0.0 0.0 0.00 0.00 0.00 30 1011.3
20260506162701 71 0.0 0.0 0.00 0.00 0.00 29 1011.3
20260506161702 71 0.0 0.0 0.00 0.00 0.00 30 1011.1
20260506160702 71 0.0 0.0 0.00 0.00 0.00 29 1011.1
20260506155705 71 0.0 0.0 0.00 0.00 0.00 29 1011.2
20260506154703 72 0.0 0.0 0.00 0.00 0.00 27 1011.1
20260506153702 72 0.0 0.0 0.00 0.00 0.00 26 1011.1
20260506152702 72 0.0 0.0 0.00 0.00 0.00 25 1011.1
20260506151702 72 0.0 0.0 0.00 0.00 0.00 24 1011.0
20260506150701 72 0.0 0.0 0.00 0.00 0.00 24 1011.0
20260506145701 72 0.0 0.0 0.00 0.00 0.00 23 1011.1
20260506144701 72 0.0 0.0 0.00 0.00 0.00 23 1011.0
20260506143701 72 0.0 0.0 0.00 0.00 0.00 23 1011.0
20260506142702 73 0.0 0.0 0.00 0.00 0.00 21 1011.0
20260506141701 73 0.0 0.0 0.00 0.00 0.00 21 1011.0
20260506140702 73 0.0 0.0 0.00 0.00 0.00 23 1010.9
20260506135703 73 0.0 0.0 0.00 0.00 0.00 25 1011.0
20260506134703 73 0.0 0.0 0.00 0.00 0.00 23 1010.9
20260506133702 73 0.0 0.0 0.00 0.00 0.00 19 1010.9
20260506132701 73 0.0 0.0 0.00 0.00 0.00 19 1010.9
20260506131702 73 0.0 0.0 0.00 0.00 0.00 19 1011.1
20260506130702 73 0.0 0.0 0.00 0.00 0.00 19 1011.1
20260506125701 73 0.0 0.0 0.00 0.00 0.00 19 1011.3
20260506124702 72 0.0 0.0 0.00 0.00 0.00 19 1011.3
20260506123701 72 0.0 0.0 0.00 0.00 0.00 19 1011.4